User: anonymous   Login
Location: Unspecified
(0.0000°N, 0.0000°E)
Time: 00:46:18
(UTC+00:00)
Language:

Kyokko - Orbit

View from above orbital plane
View from above orbital plane
View from above satellite
View from above satellite

Ground track
Ground track

The orbit data is extracted from the following two-line orbital elements,

1 10664U 78014A   21023.78225309 -.00000053  00000-0 -19456-4 0  9990
2 10664  65.3735  54.6615 1898139 133.3267 244.2470 10.75496858686218
Epoch (UTC): 23 January 2021 18:46:26
Eccentricity: 0.1898139
inclination: 65.3735°
perigee height: 646 km
apogee height: 3937 km
right ascension of ascending node: 54.6615°
argument of perigee: 133.3267°
revolutions per day: 10.75496858
mean anomaly at epoch: 244.2470°
orbit number at epoch: 68621

The dashed part of the orbit path shows where the satellite is in the earth's shadow,  

DLR